Location: Lombard
(41.8800°N, 88.0080°W)
Time: 06:37:18
(UTC-05:00)

deb Explorer IX - Pass Details

Date: 07 March 2024
Orbit: 512 x 901 km, 38.7° (Epoch: 23 April)

Event Time Altitude Azimuth Distance (km) Brightness Sun altitude
Rises 12:05:24 0° 272° (W) 3,497 ? 42.9°
Reaches altitude 10° 12:09:01 10° 251° (WSW) 2,584 ? 42.8°
Drops below altitude 10° 12:16:04 10° 182° (S) 2,582 ? 42.8°
Enters shadow 12:51:56 -64° 109° (ESE) 12,085 ? 41.6°
Exits shadow 13:25:22 -49° 319° (NW) 10,500 ? 39.3°
Maximum altitude 04:19:10 17° 144° (SE) 1,780 ? -22.5°
